Погода в Прилепе

Северная Македония     41°20′46″N   21°33′12″E
темп.,
°C
ветер,
м/с
пор.,
м/с
влажн.,
%
обл.,
%
осадки,
мм/ч
давл.,
гПа
погр.,
м
27 февраля, сб
сб2701:00+7ссз11740 0.0 102322
04:00+6ссз11760 0.0 102222
07:00+6ссз11760 0.0 102222
10:00+12с12550 0.0 1021381
13:00+16ссв34400 0.0 10201272
16:00+15св36470 0.0 1019932
19:00+9св33740 0.0 102154
22:00+6ссв23852 0.0 102438
28 февраля, вс
вс2801:00+4св23863 0.0 102555
04:00+2св238719 0.0 102657
07:00+2ссв238111 0.0 1027111
10:00+6ссв34513 0.0 10271075
13:00+9св34441 0.0 10271227
16:00+8всв33390 0.0 10261080
19:00+4всв22530 0.0 102922
22:00+2св22620 0.0 103023
1 марта, пн
пн101:00+1ссв12670 0.0 102922
04:000с11670 0.0 102921
07:00+1с11610 0.0 102845
10:00+6ссв23360 0.0 1028740
13:00+9ссв34320 0.0 10261265
16:00+8св45410 0.0 10261221
19:00+3св22670 0.0 103029
22:00+1св11783 0.0 103122
2 марта, вт
вт201:000с22811 0.0 103325
04:000с11820 0.0 103322
07:00+1с11770 0.0 103463
10:00+6ссв23510 0.0 1033928
13:00+9ссв23400 0.0 10321338
16:00+9всв23440 0.0 1031904
19:00+4всв11590 0.0 103222
22:00+3ссз01640 0.0 103322
3 марта, ср
ср301:00+1с01680 0.0 103322
04:00+1ссз01690 0.0 103222
07:00+2ююв00660 0.0 103222
10:00+9ююв01450 0.0 1031362
13:00+13ю01340 0.0 1029639
16:00+13ююз11320 0.0 1028630
19:00+7вюв01460 0.0 102922
22:00+5ююв01550 0.0 103022